| time (UTC) | temp F | wind direction | speed MPH | gust MPH | rain 1hr in | rain 24hr in | rain mn in | humidity % | barometer mb |
| 20260905022927 | 56 | 250 | 6.0 | 16.0 | 0.00 | 0.00 | 0.00 | 82 | 1013.5 |
| 20260905022427 | 56 | 298 | 4.0 | 17.0 | 0.00 | 0.00 | 0.00 | 82 | 1013.4 |
| 20260905021701 | 56 | 282 | 7.0 | 17.0 | 0.00 | 0.01 | 0.00 | 82 | 1013.4 |
| 20260905020925 | 56 | 266 | 6.0 | 17.0 | 0.00 | 0.01 | 0.00 | 82 | 1013.3 |
| 20260905020426 | 56 | 289 | 7.0 | 15.0 | 0.00 | 0.01 | 0.00 | 82 | 1013.2 |
| 20260905015926 | 56 | 288 | 6.0 | 14.0 | 0.00 | 0.01 | 0.00 | 82 | 1013.1 |
| 20260905015426 | 56 | 285 | 6.0 | 13.0 | 0.00 | 0.01 | 0.00 | 82 | 1013.1 |
| 20260905015153 | 56 | 251 | 6.0 | 18.0 | 0.00 | 0.01 | 0.00 | 82 | 1013.1 |
| 20260905014427 | 56 | 275 | 7.0 | 18.0 | 0.00 | 0.02 | 0.00 | 81 | 1012.9 |
| 20260905013926 | 56 | 283 | 4.0 | 17.0 | 0.00 | 0.02 | 0.00 | 81 | 1013.1 |
| 20260905013652 | 56 | 286 | 10.0 | 19.0 | 0.00 | 0.02 | 0.00 | 81 | 1013.1 |
| 20260905012932 | 56 | 250 | 12.0 | 19.0 | 0.00 | 0.02 | 0.00 | 82 | 1013.0 |
| 20260905012651 | 56 | 286 | 5.0 | 19.0 | 0.00 | 0.02 | 0.00 | 82 | 1013.0 |
| 20260905012154 | 56 | 276 | 6.0 | 19.0 | 0.00 | 0.02 | 0.00 | 82 | 1012.9 |
| 20260905011424 | 56 | 264 | 9.0 | 19.0 | 0.00 | 0.03 | 0.00 | 82 | 1012.7 |
| 20260905010925 | 57 | 299 | 9.0 | 19.0 | 0.00 | 0.03 | 0.00 | 82 | 1012.7 |
| 20260905010424 | 57 | 261 | 8.0 | 18.0 | 0.00 | 0.03 | 0.00 | 82 | 1012.6 |
| 20260905005924 | 57 | 248 | 9.0 | 18.0 | 0.00 | 0.03 | 0.00 | 82 | 1012.6 |
| 20260905004924 | 57 | 285 | 13.0 | 24.0 | 0.00 | 0.04 | 0.00 | 83 | 1012.7 |
| 20260905004423 | 57 | 276 | 11.0 | 16.0 | 0.00 | 0.04 | 0.00 | 83 | 1012.6 |
| 20260905003923 | 57 | 285 | 9.0 | 19.0 | 0.00 | 0.04 | 0.00 | 83 | 1012.6 |
| 20260905003425 | 57 | 303 | 9.0 | 19.0 | 0.00 | 0.05 | 0.00 | 83 | 1012.4 |
| 20260905002924 | 57 | 261 | 7.0 | 20.0 | 0.00 | 0.05 | 0.00 | 83 | 1012.2 |
| 20260905002424 | 57 | 261 | 10.0 | 20.0 | 0.00 | 0.05 | 0.00 | 83 | 1012.1 |
| 20260905001925 | 57 | 227 | 12.0 | 23.0 | 0.00 | 0.05 | 0.00 | 83 | 1011.9 |
| 20260905001423 | 57 | 238 | 12.0 | 23.0 | 0.00 | 0.06 | 0.00 | 83 | 1011.9 |
| 20260905000923 | 57 | 281 | 9.0 | 18.0 | 0.00 | 0.06 | 0.00 | 83 | 1012.1 |
| 20260905000421 | 57 | 247 | 10.0 | 19.0 | 0.00 | 0.06 | 0.00 | 83 | 1012.0 |
| 20260904235922 | 57 | 265 | 12.0 | 20.0 | 0.00 | 0.06 | 0.00 | 82 | 1011.9 |
| 20260904235422 | 57 | 274 | 12.0 | 20.0 | 0.00 | 0.06 | 0.00 | 82 | 1011.8 |
| 20260904234922 | 57 | 247 | 12.0 | 20.0 | 0.00 | 0.07 | 0.00 | 82 | 1011.9 |
| 20260904234422 | 57 | 254 | 12.0 | 22.0 | 0.00 | 0.08 | 0.00 | 83 | 1011.9 |
| 20260904233923 | 57 | 283 | 12.0 | 22.0 | 0.00 | 0.08 | 0.00 | 82 | 1011.7 |
| 20260904233642 | 57 | 269 | 10.0 | 24.0 | 0.00 | 0.09 | 0.00 | 83 | 1011.7 |
| 20260904233145 | 57 | 306 | 13.0 | 24.0 | 0.00 | 0.09 | 0.00 | 83 | 1011.5 |
| 20260904232422 | 57 | 251 | 9.0 | 18.0 | 0.00 | 0.09 | 0.00 | 83 | 1011.6 |
| 20260904232149 | 58 | 265 | 10.0 | 20.0 | 0.00 | 0.09 | 0.00 | 84 | 1011.6 |
| 20260904231422 | 58 | 272 | 13.0 | 20.0 | 0.00 | 0.09 | 0.00 | 84 | 1011.6 |
| 20260904230922 | 58 | 233 | 9.0 | 19.0 | 0.00 | 0.10 | 0.00 | 84 | 1011.7 |
| 20260904230422 | 58 | 238 | 9.0 | 16.0 | 0.00 | 0.10 | 0.00 | 85 | 1011.6 |
| 20260904225422 | 58 | 241 | 10.0 | 18.0 | 0.00 | 0.11 | 0.10 | 86 | 1011.5 |
| 20260904224923 | 58 | 252 | 9.0 | 14.0 | 0.00 | 0.11 | 0.10 | 86 | 1011.5 |
| 20260904224421 | 58 | 269 | 8.0 | 14.0 | 0.00 | 0.12 | 0.10 | 86 | 1011.5 |
| 20260904223919 | 58 | 269 | 8.0 | 13.0 | 0.00 | 0.12 | 0.10 | 86 | 1011.5 |
| 20260904223420 | 58 | 254 | 6.0 | 15.0 | 0.00 | 0.13 | 0.10 | 86 | 1011.6 |
| 20260904222920 | 58 | 241 | 10.0 | 16.0 | 0.00 | 0.13 | 0.10 | 86 | 1011.6 |
| 20260904221920 | 58 | 245 | 9.0 | 16.0 | 0.00 | 0.13 | 0.10 | 86 | 1011.6 |
| 20260904221421 | 58 | 266 | 7.0 | 15.0 | 0.00 | 0.13 | 0.10 | 86 | 1011.7 |
| 20260904220920 | 58 | 250 | 6.0 | 16.0 | 0.00 | 0.13 | 0.10 | 86 | 1011.6 |
| 20260904220420 | 58 | 279 | 8.0 | 16.0 | 0.00 | 0.14 | 0.10 | 86 | 1011.6 |
| 20260904215918 | 58 | 251 | 9.0 | 16.0 | 0.00 | 0.14 | 0.10 | 86 | 1011.6 |
| 20260904215420 | 59 | 261 | 9.0 | 16.0 | 0.00 | 0.14 | 0.10 | 86 | 1011.5 |
| 20260904214918 | 59 | 310 | 9.0 | 16.0 | 0.00 | 0.15 | 0.10 | 85 | 1011.5 |
| 20260904214420 | 59 | 255 | 8.0 | 16.0 | 0.00 | 0.15 | 0.10 | 85 | 1011.5 |
| 20260904213919 | 59 | 282 | 6.0 | 16.0 | 0.00 | 0.15 | 0.10 | 84 | 1011.4 |
| 20260904213641 | 59 | 298 | 9.0 | 15.0 | 0.00 | 0.16 | 0.10 | 84 | 1011.4 |
| 20260904212919 | 59 | 251 | 9.0 | 15.0 | 0.00 | 0.16 | 0.10 | 84 | 1011.4 |
| 20260904212642 | 59 | 255 | 6.0 | 15.0 | 0.00 | 0.17 | 0.10 | 84 | 1011.4 |
| 20260904212142 | 59 | 261 | 6.0 | 14.0 | 0.00 | 0.17 | 0.10 | 84 | 1011.5 |
| 20260904211417 | 59 | 266 | 6.0 | 14.0 | 0.00 | 0.17 | 0.10 | 84 | 1011.5 |
| 20260904210919 | 59 | 258 | 6.0 | 14.0 | 0.00 | 0.17 | 0.10 | 84 | 1011.5 |
| 20260904210419 | 59 | 262 | 8.0 | 14.0 | 0.00 | 0.17 | 0.10 | 84 | 1011.6 |
| 20260904205418 | 60 | 237 | 7.0 | 14.0 | 0.00 | 0.17 | 0.10 | 83 | 1011.5 |
| 20260904204920 | 60 | 238 | 7.0 | 14.0 | 0.00 | 0.17 | 0.10 | 83 | 1011.7 |
| 20260904204638 | 60 | 279 | 7.0 | 14.0 | 0.00 | 0.17 | 0.10 | 83 | 1011.7 |
| 20260904203918 | 60 | 247 | 8.0 | 17.0 | 0.00 | 0.17 | 0.10 | 82 | 1011.7 |
| 20260904203420 | 60 | 237 | 9.0 | 17.0 | 0.00 | 0.17 | 0.10 | 82 | 1011.5 |
| 20260904202918 | 60 | 261 | 8.0 | 15.0 | 0.00 | 0.17 | 0.10 | 82 | 1011.4 |
| 20260904202419 | 60 | 237 | 7.0 | 14.0 | 0.00 | 0.17 | 0.10 | 82 | 1011.4 |
| 20260904202145 | 60 | 244 | 9.0 | 16.0 | 0.00 | 0.17 | 0.10 | 82 | 1011.3 |
| 20260904201417 | 60 | 251 | 7.0 | 18.0 | 0.00 | 0.17 | 0.10 | 81 | 1011.2 |
| 20260904200918 | 60 | 259 | 10.0 | 20.0 | 0.00 | 0.17 | 0.10 | 81 | 1011.3 |
| 20260904200416 | 60 | 237 | 13.0 | 20.0 | 0.00 | 0.17 | 0.10 | 81 | 1011.5 |
| 20260904195918 | 60 | 276 | 11.0 | 19.0 | 0.00 | 0.17 | 0.10 | 81 | 1011.1 |
| 20260904195417 | 60 | 244 | 13.0 | 21.0 | 0.00 | 0.17 | 0.10 | 81 | 1011.2 |
| 20260904194918 | 61 | 245 | 13.0 | 21.0 | 0.00 | 0.17 | 0.10 | 81 | 1011.1 |
| 20260904194417 | 61 | 265 | 12.0 | 20.0 | 0.00 | 0.17 | 0.10 | 80 | 1011.1 |
| 20260904193916 | 61 | 257 | 13.0 | 20.0 | 0.00 | 0.17 | 0.10 | 80 | 1011.1 |
| 20260904193417 | 61 | 312 | 11.0 | 19.0 | 0.00 | 0.17 | 0.10 | 80 | 1011.0 |
| 20260904193142 | 61 | 245 | 10.0 | 17.0 | 0.00 | 0.17 | 0.10 | 80 | 1010.8 |
| 20260904192417 | 61 | 255 | 10.0 | 20.0 | 0.00 | 0.17 | 0.10 | 80 | 1010.9 |
| 20260904191916 | 61 | 255 | 11.0 | 20.0 | 0.00 | 0.17 | 0.10 | 79 | 1010.8 |
| 20260904191417 | 61 | 264 | 13.0 | 20.0 | 0.00 | 0.17 | 0.10 | 79 | 1010.7 |
| 20260904190917 | 61 | 243 | 9.0 | 20.0 | 0.00 | 0.17 | 0.10 | 79 | 1010.6 |
| 20260904190418 | 61 | 262 | 13.0 | 22.0 | 0.00 | 0.17 | 0.10 | 79 | 1010.5 |
| 20260904185916 | 61 | 252 | 11.0 | 22.0 | 0.00 | 0.17 | 0.10 | 78 | 1010.5 |
| 20260904185415 | 61 | 226 | 11.0 | 23.0 | 0.00 | 0.17 | 0.10 | 78 | 1010.5 |
| 20260904184918 | 61 | 251 | 13.0 | 23.0 | 0.00 | 0.18 | 0.10 | 78 | 1010.4 |
| 20260904184416 | 61 | 235 | 13.0 | 26.0 | 0.00 | 0.18 | 0.10 | 78 | 1010.5 |
| 20260904183917 | 61 | 237 | 13.0 | 26.0 | 0.00 | 0.18 | 0.10 | 78 | 1010.5 |
| 20260904183416 | 61 | 259 | 12.0 | 22.0 | 0.00 | 0.18 | 0.10 | 78 | 1010.4 |
| 20260904182916 | 61 | 255 | 11.0 | 21.0 | 0.00 | 0.18 | 0.10 | 77 | 1010.2 |
| 20260904182652 | 61 | 259 | 12.0 | 22.0 | 0.00 | 0.18 | 0.10 | 78 | 1010.2 |
| 20260904181917 | 61 | 257 | 14.0 | 22.0 | 0.00 | 0.18 | 0.10 | 77 | 1010.2 |
| 20260904181416 | 61 | 243 | 11.0 | 21.0 | 0.00 | 0.18 | 0.10 | 77 | 1010.3 |
| 20260904180918 | 61 | 250 | 11.0 | 21.0 | 0.00 | 0.18 | 0.10 | 77 | 1010.1 |
| 20260904180416 | 61 | 240 | 12.0 | 19.0 | 0.00 | 0.18 | 0.10 | 77 | 1010.1 |
| 20260904175916 | 61 | 272 | 9.0 | 18.0 | 0.00 | 0.18 | 0.10 | 76 | 1010.0 |
| 20260904175414 | 61 | 235 | 11.0 | 18.0 | 0.00 | 0.18 | 0.10 | 76 | 1009.9 |
| 20260904174915 | 61 | 255 | 7.0 | 17.0 | 0.00 | 0.18 | 0.10 | 75 | 1009.9 |
| 20260904174657 | 61 | 268 | 7.0 | 24.0 | 0.00 | 0.18 | 0.10 | 75 | 1009.8 |
| 20260904173915 | 61 | 281 | 12.0 | 24.0 | 0.00 | 0.18 | 0.10 | 75 | 1009.7 |
| 20260904173415 | 61 | 255 | 11.0 | 19.0 | 0.00 | 0.18 | 0.10 | 75 | 1009.5 |
| 20260904172914 | 61 | 288 | 12.0 | 23.0 | 0.00 | 0.18 | 0.10 | 74 | 1009.4 |
| 20260904172413 | 61 | 268 | 14.0 | 23.0 | 0.00 | 0.18 | 0.10 | 74 | 1009.4 |
| 20260904171914 | 61 | 252 | 9.0 | 23.0 | 0.00 | 0.18 | 0.10 | 74 | 1009.5 |
| 20260904171415 | 61 | 243 | 12.0 | 23.0 | 0.00 | 0.18 | 0.10 | 74 | 1009.3 |
| 20260904170915 | 61 | 266 | 10.0 | 18.0 | 0.00 | 0.18 | 0.10 | 74 | 1009.3 |
| 20260904170413 | 61 | 313 | 10.0 | 20.0 | 0.00 | 0.18 | 0.10 | 74 | 1009.1 |
| 20260904165913 | 62 | 276 | 11.0 | 23.0 | 0.00 | 0.18 | 0.10 | 74 | 1008.9 |
| 20260904165414 | 62 | 309 | 15.0 | 23.0 | 0.00 | 0.18 | 0.10 | 73 | 1008.7 |
| 20260904164914 | 62 | 288 | 12.0 | 23.0 | 0.00 | 0.18 | 0.10 | 74 | 1008.6 |
| 20260904164414 | 62 | 243 | 12.0 | 29.0 | 0.00 | 0.18 | 0.10 | 74 | 1008.4 |
| 20260904163913 | 62 | 289 | 17.0 | 29.0 | 0.00 | 0.18 | 0.10 | 73 | 1008.3 |
| 20260904163412 | 62 | 235 | 12.0 | 26.0 | 0.00 | 0.18 | 0.10 | 73 | 1008.2 |
| 20260904162913 | 62 | 261 | 14.0 | 29.0 | 0.00 | 0.18 | 0.10 | 72 | 1008.0 |
| 20260904162414 | 62 | 285 | 14.0 | 29.0 | 0.00 | 0.18 | 0.10 | 71 | 1008.0 |
| 20260904161911 | 62 | 266 | 13.0 | 29.0 | 0.00 | 0.18 | 0.10 | 72 | 1008.0 |
| 20260904161412 | 62 | 257 | 14.0 | 29.0 | 0.00 | 0.18 | 0.10 | 72 | 1007.6 |
| 20260904160912 | 62 | 276 | 17.0 | 30.0 | 0.00 | 0.18 | 0.10 | 72 | 1007.5 |
| 20260904160643 | 62 | 288 | 18.0 | 30.0 | 0.00 | 0.18 | 0.10 | 73 | 1007.7 |
| 20260904155912 | 62 | 265 | 18.0 | 27.0 | 0.00 | 0.18 | 0.10 | 73 | 1008.0 |
| 20260904155411 | 62 | 248 | 15.0 | 30.0 | 0.00 | 0.18 | 0.10 | 73 | 1007.8 |
| 20260904154911 | 62 | 252 | 19.0 | 30.0 | 0.00 | 0.18 | 0.10 | 73 | 1008.0 |
| 20260904154412 | 62 | 265 | 17.0 | 30.0 | 0.00 | 0.18 | 0.10 | 73 | 1008.2 |
| 20260904153912 | 63 | 285 | 21.0 | 30.0 | 0.00 | 0.18 | 0.10 | 72 | 1008.2 |
| 20260904153411 | 63 | 259 | 12.0 | 30.0 | 0.00 | 0.18 | 0.10 | 73 | 1008.2 |
| 20260904152911 | 63 | 259 | 15.0 | 32.0 | 0.00 | 0.18 | 0.10 | 73 | 1008.1 |
| 20260904152411 | 63 | 279 | 19.0 | 32.0 | 0.00 | 0.18 | 0.10 | 72 | 1008.0 |
| 20260904152138 | 64 | 235 | 17.0 | 31.0 | 0.00 | 0.18 | 0.10 | 73 | 1008.0 |
| 20260904151411 | 64 | 292 | 13.0 | 26.0 | 0.00 | 0.18 | 0.10 | 72 | 1007.6 |
| 20260904151134 | 64 | 243 | 12.0 | 20.0 | 0.00 | 0.18 | 0.10 | 72 | 1007.7 |
| 20260904150411 | 63 | 266 | 11.0 | 26.0 | 0.00 | 0.18 | 0.10 | 74 | 1007.5 |
| 20260904145910 | 63 | 293 | 17.0 | 27.0 | 0.00 | 0.18 | 0.10 | 72 | 1007.4 |
| 20260904145413 | 63 | 265 | 13.0 | 27.0 | 0.00 | 0.18 | 0.10 | 73 | 1007.3 |
| 20260904144912 | 63 | 230 | 13.0 | 32.0 | 0.00 | 0.18 | 0.10 | 72 | 1007.1 |
| 20260904144411 | 63 | 317 | 18.0 | 32.0 | 0.00 | 0.18 | 0.10 | 72 | 1007.0 |
| 20260904143911 | 63 | 302 | 15.0 | 29.0 | 0.00 | 0.18 | 0.10 | 72 | 1006.6 |
| 20260904143410 | 63 | 231 | 14.0 | 35.0 | 0.00 | 0.18 | 0.10 | 72 | 1006.5 |
| 20260904142910 | 63 | 290 | 19.0 | 35.0 | 0.00 | 0.18 | 0.10 | 71 | 1006.4 |
| 20260904142410 | 64 | 282 | 18.0 | 40.0 | 0.00 | 0.18 | 0.10 | 70 | 1006.3 |
| 20260904141911 | 64 | 257 | 15.0 | 40.0 | 0.00 | 0.18 | 0.10 | 72 | 1005.9 |
| 20260904141409 | 63 | 254 | 19.0 | 33.0 | 0.00 | 0.18 | 0.10 | 72 | 1005.8 |
| 20260904141132 | 64 | 237 | 17.0 | 23.0 | 0.00 | 0.18 | 0.10 | 74 | 1005.8 |
| 20260904140409 | 63 | 237 | 17.0 | 38.0 | 0.00 | 0.18 | 0.10 | 74 | 1005.5 |
| 20260904135908 | 63 | 244 | 21.0 | 38.0 | 0.00 | 0.18 | 0.10 | 74 | 1005.6 |
| 20260904135410 | 63 | 309 | 23.0 | 37.0 | 0.00 | 0.18 | 0.10 | 73 | 1005.8 |
| 20260904134908 | 63 | 204 | 17.0 | 33.0 | 0.00 | 0.18 | 0.10 | 74 | 1005.4 |
| 20260904134409 | 63 | 244 | 20.0 | 34.0 | 0.00 | 0.18 | 0.10 | 74 | 1005.3 |
| 20260904133908 | 63 | 248 | 23.0 | 36.0 | 0.00 | 0.18 | 0.10 | 74 | 1005.3 |
| 20260904133408 | 63 | 269 | 23.0 | 36.0 | 0.00 | 0.18 | 0.10 | 73 | 1005.4 |
| 20260904132909 | 64 | 244 | 18.0 | 35.0 | 0.00 | 0.18 | 0.10 | 74 | 1005.5 |
| 20260904132413 | 64 | 254 | 17.0 | 36.0 | 0.00 | 0.18 | 0.10 | 73 | 1005.5 |
| 20260904131908 | 64 | 250 | 17.0 | 36.0 | 0.00 | 0.18 | 0.10 | 75 | 1005.6 |
| 20260904131408 | 64 | 247 | 13.0 | 34.0 | 0.00 | 0.18 | 0.10 | 75 | 1005.8 |
| 20260904130908 | 63 | 268 | 23.0 | 34.0 | 0.00 | 0.18 | 0.10 | 75 | 1005.9 |
| 20260904130407 | 63 | 257 | 18.0 | 33.0 | 0.00 | 0.18 | 0.10 | 76 | 1005.7 |
| 20260904125908 | 64 | 255 | 19.0 | 38.0 | 0.00 | 0.18 | 0.10 | 75 | 1005.7 |
| 20260904125407 | 63 | 305 | 18.0 | 38.0 | 0.00 | 0.18 | 0.10 | 75 | 1005.7 |
| 20260904124907 | 63 | 298 | 17.0 | 34.0 | 0.00 | 0.18 | 0.10 | 75 | 1005.4 |
| 20260904124407 | 63 | 278 | 19.0 | 32.0 | 0.00 | 0.18 | 0.10 | 76 | 1005.4 |
| 20260904123908 | 63 | 314 | 19.0 | 36.0 | 0.00 | 0.18 | 0.10 | 76 | 1005.5 |
| 20260904123635 | 63 | 269 | 20.0 | 36.0 | 0.00 | 0.18 | 0.10 | 74 | 1005.6 |
| 20260904122906 | 64 | 243 | 17.0 | 32.0 | 0.00 | 0.18 | 0.10 | 74 | 1005.4 |
| 20260904122407 | 63 | 278 | 15.0 | 36.0 | 0.00 | 0.18 | 0.10 | 75 | 1005.5 |
| 20260904121908 | 63 | 245 | 21.0 | 36.0 | 0.00 | 0.18 | 0.10 | 75 | 1005.4 |
| 20260904121406 | 63 | 303 | 17.0 | 31.0 | 0.00 | 0.18 | 0.10 | 75 | 1005.5 |
| 20260904120907 | 63 | 272 | 17.0 | 30.0 | 0.00 | 0.18 | 0.10 | 75 | 1005.1 |
| 20260904120409 | 63 | 235 | 15.0 | 32.0 | 0.00 | 0.18 | 0.10 | 75 | 1005.1 |
| 20260904115906 | 63 | 279 | 16.0 | 37.0 | 0.00 | 0.18 | 0.10 | 74 | 1005.0 |
| 20260904115406 | 62 | 248 | 25.0 | 37.0 | 0.00 | 0.18 | 0.10 | 75 | 1004.9 |
| 20260904115132 | 63 | 234 | 19.0 | 35.0 | 0.00 | 0.18 | 0.10 | 76 | 1004.8 |
| 20260904114405 | 63 | 248 | 17.0 | 32.0 | 0.00 | 0.18 | 0.10 | 77 | 1005.0 |
| 20260904113906 | 63 | 255 | 18.0 | 32.0 | 0.00 | 0.18 | 0.10 | 76 | 1004.7 |
| 20260904113629 | 62 | 245 | 11.0 | 26.0 | 0.00 | 0.18 | 0.10 | 78 | 1004.8 |
| 20260904112907 | 62 | 247 | 17.0 | 27.0 | 0.00 | 0.18 | 0.10 | 77 | 1004.7 |
| 20260904112629 | 62 | 299 | 13.0 | 30.0 | 0.00 | 0.18 | 0.10 | 77 | 1004.7 |
| 20260904111905 | 62 | 269 | 21.0 | 31.0 | 0.00 | 0.18 | 0.10 | 76 | 1004.8 |
| 20260904111412 | 62 | 235 | 16.0 | 31.0 | 0.00 | 0.18 | 0.10 | 75 | 1004.7 |
| 20260904110910 | 62 | 271 | 15.0 | 38.0 | 0.00 | 0.18 | 0.10 | 77 | 1004.5 |
| 20260904110409 | 62 | 264 | 20.0 | 38.0 | 0.00 | 0.18 | 0.10 | 76 | 1004.5 |
| 20260904105910 | 62 | 250 | 16.0 | 27.0 | 0.00 | 0.18 | 0.10 | 77 | 1004.6 |
| 20260904105405 | 62 | 265 | 12.0 | 29.0 | 0.00 | 0.18 | 0.10 | 76 | 1004.6 |
| 20260904104904 | 62 | 244 | 15.0 | 29.0 | 0.00 | 0.18 | 0.10 | 77 | 1004.4 |
| 20260904104404 | 62 | 293 | 17.0 | 27.0 | 0.00 | 0.18 | 0.10 | 78 | 1004.5 |
| 20260904103904 | 62 | 303 | 17.0 | 27.0 | 0.00 | 0.18 | 0.10 | 76 | 1004.5 |
| 20260904103406 | 62 | 285 | 15.0 | 30.0 | 0.00 | 0.18 | 0.10 | 76 | 1004.6 |
| 20260904102904 | 62 | 262 | 16.0 | 39.0 | 0.00 | 0.18 | 0.10 | 75 | 1004.7 |
| 20260904102405 | 62 | 261 | 21.0 | 39.0 | 0.00 | 0.18 | 0.10 | 76 | 1004.5 |
| 20260904101904 | 62 | 268 | 17.0 | 29.0 | 0.00 | 0.18 | 0.10 | 78 | 1004.5 |
| 20260904101403 | 62 | 250 | 19.0 | 29.0 | 0.00 | 0.18 | 0.10 | 78 | 1004.5 |
| 20260904100904 | 62 | 245 | 11.0 | 28.0 | 0.00 | 0.18 | 0.10 | 79 | 1004.7 |
| 20260904100406 | 61 | 261 | 11.0 | 28.0 | 0.00 | 0.18 | 0.10 | 80 | 1004.6 |
| 20260904095906 | 61 | 283 | 12.0 | 28.0 | 0.00 | 0.18 | 0.10 | 80 | 1004.6 |
| 20260904095406 | 61 | 264 | 14.0 | 26.0 | 0.00 | 0.18 | 0.10 | 81 | 1004.6 |
| 20260904094903 | 60 | 283 | 10.0 | 23.0 | 0.00 | 0.18 | 0.10 | 82 | 1004.7 |
| 20260904094627 | 60 | 295 | 12.0 | 26.0 | 0.00 | 0.18 | 0.10 | 83 | 1004.6 |
| 20260904094128 | 60 | 300 | 11.0 | 26.0 | 0.00 | 0.18 | 0.10 | 83 | 1004.7 |
| 20260904093403 | 60 | 296 | 9.0 | 22.0 | 0.00 | 0.18 | 0.10 | 83 | 1004.6 |
| 20260904092904 | 59 | 272 | 13.0 | 22.0 | 0.00 | 0.18 | 0.10 | 83 | 1004.5 |
| 20260904092404 | 59 | 290 | 5.0 | 22.0 | 0.00 | 0.18 | 0.10 | 84 | 1004.6 |
| 20260904091905 | 59 | 274 | 14.0 | 22.0 | 0.00 | 0.18 | 0.10 | 84 | 1004.7 |
| 20260904091625 | 60 | 299 | 12.0 | 22.0 | 0.00 | 0.18 | 0.10 | 84 | 1004.6 |
| 20260904090903 | 60 | 210 | 7.0 | 18.0 | 0.00 | 0.18 | 0.10 | 84 | 1004.7 |
| 20260904090404 | 60 | 241 | 12.0 | 18.0 | 0.00 | 0.18 | 0.10 | 84 | 1004.6 |
| 20260904085903 | 60 | 275 | 7.0 | 20.0 | 0.00 | 0.18 | 0.10 | 85 | 1004.6 |
| 20260904085404 | 60 | 251 | 10.0 | 20.0 | 0.00 | 0.18 | 0.10 | 85 | 1004.5 |
| 20260904085123 | 60 | 288 | 6.0 | 15.0 | 0.00 | 0.18 | 0.10 | 85 | 1004.5 |
| 20260904084626 | 60 | 235 | 6.0 | 19.0 | 0.00 | 0.20 | 0.10 | 85 | 1004.5 |
| 20260904083905 | 60 | 303 | 10.0 | 19.0 | 0.00 | 0.21 | 0.10 | 86 | 1004.5 |
| 20260904083405 | 59 | 310 | 11.0 | 17.0 | 0.00 | 0.22 | 0.10 | 86 | 1004.4 |
| 20260904082904 | 59 | 255 | 6.0 | 15.0 | 0.00 | 0.22 | 0.10 | 87 | 1004.4 |
| 20260904082403 | 59 | 302 | 6.0 | 16.0 | 0.00 | 0.22 | 0.10 | 88 | 1004.3 |
| 20260904081904 | 59 | 241 | 9.0 | 16.0 | 0.00 | 0.22 | 0.10 | 89 | 1004.4 |
| 20260904081404 | 59 | 299 | 6.0 | 11.0 | 0.00 | 0.22 | 0.10 | 89 | 1004.2 |
| 20260904080904 | 59 | 299 | 4.0 | 14.0 | 0.00 | 0.22 | 0.10 | 89 | 1003.9 |
| 20260904080404 | 58 | 250 | 6.0 | 19.0 | 0.00 | 0.22 | 0.10 | 89 | 1004.0 |
| 20260904075905 | 58 | 269 | 11.0 | 21.0 | 0.00 | 0.22 | 0.10 | 89 | 1003.9 |
| 20260904075404 | 58 | 248 | 9.0 | 21.0 | 0.00 | 0.22 | 0.10 | 90 | 1003.5 |
| 20260904074906 | 58 | 252 | 9.0 | 17.0 | 0.00 | 0.22 | 0.10 | 90 | 1003.6 |
| 20260904074404 | 58 | 251 | 8.0 | 17.0 | 0.00 | 0.22 | 0.10 | 90 | 1003.4 |
| 20260904073903 | 58 | 243 | 11.0 | 16.0 | 0.00 | 0.22 | 0.10 | 90 | 1003.7 |
| 20260904073404 | 58 | 226 | 9.0 | 18.0 | 0.00 | 0.22 | 0.10 | 91 | 1003.8 |
| 20260904072903 | 58 | 237 | 10.0 | 18.0 | 0.00 | 0.22 | 0.10 | 91 | 1003.7 |
| 20260904072406 | 58 | 247 | 10.0 | 17.0 | 0.00 | 0.22 | 0.10 | 91 | 1003.7 |
| 20260904071904 | 58 | 258 | 7.0 | 15.0 | 0.00 | 0.22 | 0.10 | 91 | 1003.9 |
| 20260904071404 | 58 | 268 | 8.0 | 16.0 | 0.00 | 0.22 | 0.10 | 91 | 1003.9 |
| 20260904070904 | 58 | 240 | 9.0 | 18.0 | 0.00 | 0.22 | 0.10 | 91 | 1003.8 |
| 20260904070404 | 58 | 257 | 10.0 | 18.0 | 0.00 | 0.22 | 0.10 | 91 | 1003.8 |
| 20260904065904 | 58 | 247 | 10.0 | 20.0 | 0.00 | 0.22 | 0.10 | 91 | 1003.7 |
| 20260904065405 | 58 | 268 | 9.0 | 20.0 | 0.00 | 0.22 | 0.10 | 92 | 1003.5 |
| 20260904064403 | 58 | 250 | 11.0 | 20.0 | 0.00 | 0.23 | 0.10 | 93 | 1003.6 |
| 20260904063904 | 58 | 276 | 11.0 | 18.0 | 0.00 | 0.23 | 0.10 | 93 | 1003.3 |
| 20260904063409 | 58 | 247 | 11.0 | 20.0 | 0.00 | 0.23 | 0.10 | 93 | 1003.4 |
| 20260904062905 | 58 | 272 | 12.0 | 20.0 | 0.00 | 0.23 | 0.10 | 93 | 1003.4 |
| 20260904062404 | 58 | 223 | 11.0 | 20.0 | 0.00 | 0.23 | 0.10 | 94 | 1003.4 |
| 20260904062130 | 58 | 237 | 10.0 | 18.0 | 0.00 | 0.23 | 0.10 | 94 | 1003.7 |
| 20260904061404 | 58 | 278 | 8.0 | 19.0 | 0.00 | 0.23 | 0.10 | 94 | 1003.5 |
| 20260904060903 | 57 | 268 | 11.0 | 19.0 | 0.00 | 0.23 | 0.10 | 95 | 1003.5 |
| 20260904060405 | 57 | 275 | 9.0 | 18.0 | 0.00 | 0.23 | 0.10 | 95 | 1003.5 |
| 20260904055405 | 57 | 240 | 7.0 | 13.0 | 0.00 | 0.23 | 0.10 | 95 | 1003.3 |
| 20260904054905 | 57 | 248 | 6.0 | 15.0 | 0.00 | 0.23 | 0.10 | 95 | 1003.4 |
| 20260904054405 | 58 | 278 | 8.0 | 15.0 | 0.00 | 0.23 | 0.10 | 95 | 1003.4 |
| 20260904054131 | 58 | 268 | 6.0 | 14.0 | 0.00 | 0.23 | 0.10 | 96 | 1003.5 |
| 20260904053406 | 58 | 290 | 8.0 | 14.0 | 0.00 | 0.23 | 0.10 | 96 | 1003.4 |
| 20260904052906 | 58 | 264 | 5.0 | 16.0 | 0.00 | 0.23 | 0.10 | 96 | 1003.2 |
| 20260904052405 | 58 | 258 | 9.0 | 17.0 | 0.00 | 0.23 | 0.10 | 96 | 1003.6 |
| 20260904051906 | 58 | 266 | 10.0 | 17.0 | 0.00 | 0.23 | 0.10 | 96 | 1003.4 |
| 20260904051404 | 58 | 264 | 5.0 | 11.0 | 0.00 | 0.23 | 0.10 | 96 | 1003.3 |
| 20260904050904 | 58 | 290 | 6.0 | 13.0 | 0.00 | 0.23 | 0.10 | 96 | 1003.2 |
| 20260904050405 | 58 | 274 | 4.0 | 13.0 | 0.00 | 0.23 | 0.10 | 96 | 1003.4 |
| 20260904045904 | 58 | 248 | 4.0 | 6.0 | 0.00 | 0.23 | 0.10 | 96 | 1003.4 |
| 20260904045404 | 58 | 257 | 3.0 | 6.0 | 0.00 | 0.23 | 0.10 | 96 | 1003.3 |
| 20260904044905 | 57 | 265 | 4.0 | 6.0 | 0.00 | 0.24 | 0.10 | 96 | 1003.4 |
| 20260904044403 | 57 | 259 | 4.0 | 7.0 | 0.00 | 0.24 | 0.10 | 96 | 1003.2 |
| 20260904043404 | 57 | 243 | 3.0 | 6.0 | 0.00 | 0.24 | 0.10 | 96 | 1003.2 |
| 20260904042903 | 57 | 224 | 3.0 | 6.0 | 0.00 | 0.24 | 0.10 | 96 | 1003.0 |
| 20260904042404 | 57 | 257 | 3.0 | 5.0 | 0.00 | 0.24 | 0.10 | 96 | 1003.0 |
| 20260904042131 | 57 | 257 | 2.0 | 5.0 | 0.00 | 0.24 | 0.10 | 96 | 1003.0 |
| 20260904041403 | 57 | 286 | 1.0 | 4.0 | 0.00 | 0.24 | 0.10 | 96 | 1002.9 |
| 20260904040903 | 57 | 286 | 2.0 | 4.0 | 0.00 | 0.24 | 0.10 | 96 | 1003.2 |
| 20260904040629 | 57 | 288 | 2.0 | 3.0 | 0.00 | 0.24 | 0.10 | 96 | 1003.6 |
| 20260904035903 | 56 | 288 | 2.0 | 3.0 | 0.00 | 0.24 | 0.10 | 95 | 1003.6 |
| 20260904035404 | 56 | 288 | 1.0 | 2.0 | 0.00 | 0.24 | 0.10 | 95 | 1003.6 |
| 20260904034903 | 56 | 288 | 1.0 | 2.0 | 0.00 | 0.24 | 0.10 | 96 | 1003.4 |
| 20260904034404 | 56 | 288 | 0.0 | 0.0 | 0.00 | 0.24 | 0.10 | 95 | 1003.6 |
| 20260904033903 | 56 | 288 | 0.0 | 0.0 | 0.00 | 0.24 | 0.10 | 95 | 1003.8 |
| 20260904033403 | 56 | 288 | 0.0 | 0.0 | 0.00 | 0.24 | 0.10 | 95 | 1003.6 |
| 20260904032903 | 56 | 288 | 0.0 | 2.0 | 0.00 | 0.24 | 0.10 | 95 | 1003.9 |
| 20260904032405 | 56 | 288 | 0.0 | 2.0 | 0.00 | 0.24 | 0.10 | 95 | 1003.9 |
| 20260904031904 | 56 | 288 | 1.0 | 3.0 | 0.00 | 0.24 | 0.10 | 95 | 1003.8 |
| 20260904031405 | 56 | 288 | 2.0 | 3.0 | 0.01 | 0.24 | 0.10 | 95 | 1003.6 |
| 20260904030903 | 56 | 288 | 0.0 | 2.0 | 0.01 | 0.24 | 0.10 | 95 | 1004.0 |
| 20260904030404 | 56 | 288 | 1.0 | 2.0 | 0.01 | 0.24 | 0.10 | 95 | 1003.7 |
| 20260904025903 | 56 | 288 | 0.0 | 0.0 | 0.01 | 0.24 | 0.10 | 95 | 1003.8 |
| 20260904025404 | 56 | 288 | 0.0 | 0.0 | 0.01 | 0.24 | 0.10 | 95 | 1003.9 |
| 20260904024903 | 56 | 288 | 0.0 | 1.0 | 0.01 | 0.24 | 0.10 | 95 | 1004.0 |
| 20260904024403 | 56 | 288 | 0.0 | 1.0 | 0.02 | 0.24 | 0.10 | 95 | 1004.1 |
| 20260904023903 | 56 | 288 | 0.0 | 1.0 | 0.02 | 0.24 | 0.10 | 95 | 1004.3 |
| 20260904023405 | 56 | 288 | 0.0 | 2.0 | 0.02 | 0.24 | 0.10 | 95 | 1004.3 |